Epoch = 2005 Sept.27.0 TT T = 2005 Oct. 12.17657 TT Peri. = 196.18226 e = 0.4171851 Node = 261.87312 2000.0 q = 4.0019333 AU Incl. = 10.00693 a = 6.8665598 AU n = 0.05477662 P = 17.99 years
m1 = 12.0 + 5 log d + 10.0 log r